TimeCST,TemperatureF,Dew PointF,Humidity,Sea Level PressureIn,VisibilityMPH,Wind Direction,Wind SpeedMPH,Gust SpeedMPH,PrecipitationIn,Events,Conditions,WindDirDegrees,DateUTC
12:15 AM,35.8,25.7,67,30.18,10.0,South,16.1,21.9,N/A,,Clear,190,2013-01-10 06:15:00
12:35 AM,34.9,25.5,69,30.18,10.0,South,13.8,20.7,N/A,,Clear,190,2013-01-10 06:35:00
12:55 AM,33.6,25.5,72,30.17,10.0,SSW,10.4,-,N/A,,Clear,200,2013-01-10 06:55:00
2:15 AM,31.3,25.5,79,30.13,10.0,SSW,5.8,-,N/A,,Clear,200,2013-01-10 08:15:00
2:35 AM,32.9,26.4,77,30.12,10.0,South,9.2,-,N/A,,Clear,190,2013-01-10 08:35:00
2:55 AM,33.6,26.8,76,30.10,10.0,South,13.8,-,N/A,,Clear,180,2013-01-10 08:55:00
3:15 AM,34.7,27.1,74,30.09,10.0,South,15.0,-,N/A,,Clear,170,2013-01-10 09:15:00
3:35 AM,34.7,27.1,74,30.08,10.0,South,16.1,-,N/A,,Clear,170,2013-01-10 09:35:00
3:55 AM,34.9,26.8,72,30.07,10.0,South,13.8,-,N/A,,Scattered Clouds,170,2013-01-10 09:55:00
4:15 AM,34.2,26.6,74,30.05,10.0,South,13.8,-,N/A,,Scattered Clouds,170,2013-01-10 10:15:00
4:35 AM,34.0,26.4,74,30.03,10.0,SSE,12.7,17.3,N/A,,Clear,160,2013-01-10 10:35:00
4:55 AM,34.9,26.1,70,30.02,10.0,SSE,15.0,20.7,N/A,,Mostly Cloudy,160,2013-01-10 10:55:00
5:15 AM,35.8,26.2,68,30.00,10.0,SSE,15.0,-,N/A,,Mostly Cloudy,160,2013-01-10 11:15:00
5:35 AM,36.1,26.4,68,29.99,10.0,SSE,9.2,-,N/A,,Scattered Clouds,160,2013-01-10 11:35:00
5:55 AM,35.8,26.4,69,29.99,10.0,West,4.6,-,N/A,,Mostly Cloudy,280,2013-01-10 11:55:00
6:15 AM,36.7,26.6,67,29.99,10.0,SSW,5.8,-,N/A,,Overcast,200,2013-01-10 12:15:00
6:35 AM,36.5,27.3,69,29.98,10.0,WSW,5.8,-,N/A,,Overcast,240,2013-01-10 12:35:00
6:55 AM,36.9,27.3,68,29.98,10.0,SSW,5.8,-,N/A,,Overcast,210,2013-01-10 12:55:00
7:15 AM,36.7,27.7,70,29.97,10.0,SSE,5.8,-,N/A,,Overcast,160,2013-01-10 13:15:00
7:35 AM,36.9,28.4,71,29.97,10.0,South,5.8,-,N/A,,Overcast,180,2013-01-10 13:35:00
7:55 AM,36.7,28.4,72,29.96,10.0,SSW,3.5,-,N/A,,Overcast,200,2013-01-10 13:55:00
8:15 AM,36.5,28.9,74,29.95,10.0,SE,6.9,-,N/A,,Overcast,140,2013-01-10 14:15:00
8:35 AM,36.7,28.9,74,29.94,10.0,SE,4.6,-,N/A,,Overcast,130,2013-01-10 14:35:00
9:15 AM,36.9,29.7,75,29.91,10.0,South,4.6,-,N/A,,Overcast,180,2013-01-10 15:15:00
9:35 AM,37.2,30.7,77,29.90,10.0,SSE,4.6,-,N/A,,Overcast,150,2013-01-10 15:35:00
9:55 AM,37.4,31.3,79,29.90,10.0,SSE,6.9,-,N/A,,Overcast,160,2013-01-10 15:55:00
10:15 AM,37.8,31.1,77,29.89,10.0,SSE,9.2,-,N/A,,Overcast,150,2013-01-10 16:15:00
10:35 AM,38.3,31.8,77,29.88,10.0,SSE,9.2,-,N/A,,Overcast,160,2013-01-10 16:35:00
10:55 AM,37.0,32.0,82,29.87,10.0,South,11.5,-,N/A,,Overcast,180,2013-01-10 16:55:00
11:15 AM,37.6,33.4,85,29.84,10.0,South,10.4,-,N/A,,Overcast,170,2013-01-10 17:15:00
11:35 AM,39.2,34.0,82,29.80,10.0,SSE,8.1,-,N/A,,Scattered Clouds,150,2013-01-10 17:35:00
11:55 AM,40.6,33.8,77,29.78,10.0,SSE,8.1,-,N/A,,Clear,150,2013-01-10 17:55:00
12:15 PM,43.9,34.9,71,29.76,10.0,SSE,11.5,-,N/A,,Clear,150,2013-01-10 18:15:00
12:35 PM,44.1,34.3,69,29.72,10.0,SSE,10.4,-,N/A,,Clear,150,2013-01-10 18:35:00
12:55 PM,42.8,34.5,73,29.71,10.0,SSE,12.7,-,N/A,,Clear,150,2013-01-10 18:55:00
1:15 PM,42.6,35.2,75,29.70,10.0,South,11.5,-,N/A,,Clear,170,2013-01-10 19:15:00
1:35 PM,43.5,35.8,74,29.70,10.0,SSE,11.5,-,N/A,,Clear,160,2013-01-10 19:35:00
1:55 PM,44.4,35.8,72,29.67,10.0,SE,12.7,-,N/A,,Clear,130,2013-01-10 19:55:00
2:15 PM,45.0,36.1,71,29.67,10.0,SE,12.7,-,N/A,,Clear,140,2013-01-10 20:15:00
2:35 PM,44.8,35.8,71,29.67,10.0,SSE,15.0,-,N/A,,Clear,150,2013-01-10 20:35:00
2:55 PM,44.2,35.8,72,29.67,10.0,SSE,12.7,-,N/A,,Clear,160,2013-01-10 20:55:00
3:15 PM,44.1,36.5,75,29.66,10.0,SSE,10.4,-,N/A,,Clear,160,2013-01-10 21:15:00
3:35 PM,43.5,36.1,75,29.66,10.0,SE,12.7,-,N/A,,Clear,140,2013-01-10 21:35:00
3:55 PM,42.3,36.0,78,29.65,10.0,SSE,13.8,-,N/A,,Clear,160,2013-01-10 21:55:00
4:15 PM,41.9,36.1,80,29.64,10.0,SSE,15.0,-,N/A,,Clear,150,2013-01-10 22:15:00
4:35 PM,41.9,36.1,80,29.64,10.0,SSE,12.7,-,N/A,,Clear,150,2013-01-10 22:35:00
4:55 PM,41.2,36.1,82,29.63,10.0,SSE,10.4,-,N/A,,Clear,150,2013-01-10 22:55:00
5:15 PM,40.6,36.0,83,29.62,10.0,SE,10.4,-,N/A,,Clear,140,2013-01-10 23:15:00
5:35 PM,40.1,35.8,85,29.63,10.0,SSE,9.2,-,N/A,,Clear,150,2013-01-10 23:35:00
5:55 PM,39.4,35.6,86,29.61,10.0,SSE,13.8,-,N/A,,Clear,150,2013-01-10 23:55:00
6:15 PM,38.5,34.9,87,29.61,10.0,SSE,10.4,-,N/A,,Clear,150,2013-01-11 00:15:00
6:35 PM,37.8,34.7,89,29.61,10.0,SSE,11.5,-,N/A,,Clear,160,2013-01-11 00:35:00
6:55 PM,36.9,34.0,89,29.60,10.0,SSE,8.1,-,N/A,,Clear,150,2013-01-11 00:55:00
7:15 PM,36.5,34.0,91,29.59,10.0,SSE,6.9,-,N/A,,Clear,160,2013-01-11 01:15:00
7:35 PM,36.1,33.8,91,29.57,10.0,SSE,9.2,-,N/A,,Clear,160,2013-01-11 01:35:00
7:55 PM,35.8,33.3,91,29.57,10.0,South,10.4,-,N/A,,Clear,170,2013-01-11 01:55:00
8:15 PM,37.0,34.9,92,29.56,10.0,South,15.0,-,N/A,,Mostly Cloudy,190,2013-01-11 02:15:00
8:55 PM,38.8,37.0,93,29.55,5.0,South,10.4,-,N/A,,Overcast,190,2013-01-11 02:55:00
9:15 PM,39.2,37.4,93,29.55,7.0,South,15.0,-,N/A,,Overcast,190,2013-01-11 03:15:00
9:35 PM,39.2,37.0,92,29.54,7.0,South,16.1,19.6,N/A,,Overcast,180,2013-01-11 03:35:00
9:55 PM,38.8,37.0,93,29.55,2.5,South,12.7,-,N/A,,Overcast,180,2013-01-11 03:55:00
10:15 PM,38.7,36.9,93,29.54,2.5,South,15.0,18.4,N/A,,Overcast,180,2013-01-11 04:15:00
10:35 PM,38.7,37.0,94,29.53,3.0,SSW,9.2,-,N/A,,Overcast,200,2013-01-11 04:35:00
10:55 PM,38.8,37.4,95,29.52,5.0,SSW,9.2,-,N/A,,Overcast,200,2013-01-11 04:55:00
11:15 PM,39.2,37.4,93,29.51,7.0,SSW,13.8,18.4,N/A,,Overcast,210,2013-01-11 05:15:00
11:35 PM,38.8,37.0,93,29.50,10.0,SSW,13.8,18.4,N/A,,Overcast,200,2013-01-11 05:35:00
11:55 PM,38.7,36.9,93,29.50,7.0,SSW,12.7,-,N/A,,Overcast,200,2013-01-11 05:55:00